MDT,Max TemperatureF,Mean TemperatureF,Min TemperatureF,Max Dew PointF,MeanDew PointF,Min DewpointF,Max Humidity, Mean Humidity, Min Humidity, Max Sea Level PressureIn, Mean Sea Level PressureIn, Min Sea Level PressureIn, Max VisibilityMiles, Mean VisibilityMiles, Min VisibilityMiles, Max Wind SpeedMPH, Mean Wind SpeedMPH, Max Gust SpeedMPH,PrecipitationIn, CloudCover, Events, WindDirDegrees
2013-6-1,76,57,37,33,28,21,57,35,13,30.21,30.10,29.94,10,10,10,13,6,16,0.00,0,,255
2013-6-2,88,65,42,39,33,26,67,39,11,29.92,29.74,29.61,10,10,10,30,11,36,0.00,1,,265
2013-6-3,72,56,40,34,28,22,58,37,16,29.96,29.90,29.77,10,10,10,21,11,25,0.00,1,,225
2013-6-4,74,59,43,38,31,23,60,40,19,30.04,29.99,29.91,10,10,10,18,7,23,0.00,1,,60
2013-6-5,81,59,37,41,33,26,79,47,15,30.09,30.03,29.94,10,10,10,14,6,18,0.00,0,,257
2013-6-6,82,63,44,45,37,32,65,41,17,30.04,29.95,29.89,10,10,10,30,7,38,T,1,,15
2013-6-7,88,67,45,46,41,36,83,50,17,29.94,29.85,29.72,10,10,10,30,13,36,0.00,0,,240
2013-6-8,84,68,52,46,37,25,61,37,13,29.94,29.88,29.75,10,10,10,24,14,35,0.00,0,,224
2013-6-9,91,77,62,43,36,32,44,28,12,29.89,29.81,29.68,10,10,10,22,12,26,0.00,0,,230
2013-6-10,96,76,55,47,33,6,66,35,4,29.74,29.63,29.50,10,10,10,31,12,41,0.00,0,,205
2013-6-11,85,73,61,44,39,30,43,33,22,29.83,29.74,29.59,10,10,10,29,14,39,T,1,Rain,224
2013-6-12,81,67,52,57,48,39,80,54,27,30.08,29.90,29.83,10,10,5,25,7,35,0.45,4,Rain-Hail-Thunderstorm,57
2013-6-13,76,64,51,51,42,34,89,55,21,30.02,29.90,29.81,10,10,6,36,14,52,0.01,3,Rain,229
2013-6-14,67,54,40,34,31,23,60,40,20,30.19,30.12,30.02,10,10,10,25,13,32,0.00,1,,231
2013-6-15,79,56,33,36,29,20,82,47,12,30.10,30.00,29.90,10,10,10,13,5,16,0.00,0,,15
2013-6-16,89,65,41,42,35,17,83,45,7,29.96,29.91,29.84,10,10,10,35,6,41,0.00,1,,328
2013-6-17,89,68,46,45,35,19,66,37,8,29.97,29.89,29.80,10,10,10,14,5,18,0.00,0,,290
2013-6-18,91,68,44,43,32,9,71,38,5,29.81,29.67,29.41,10,10,10,31,9,37,0.00,0,,238
2013-6-19,70,58,45,46,36,25,71,51,30,29.99,29.72,29.48,10,10,9,44,17,54,0.06,2,Rain-Thunderstorm,228
2013-6-20,68,53,38,37,31,22,82,50,18,30.05,29.99,29.91,10,10,10,17,8,22,0.00,1,,230
2013-6-21,70,57,43,40,33,26,66,44,22,30.04,29.97,29.91,10,10,10,23,11,29,T,2,,233
2013-6-22,70,59,47,39,34,28,65,44,22,30.05,29.99,29.94,10,10,10,24,13,32,0.00,2,,228
2013-6-23,83,60,36,40,32,26,70,42,14,29.95,29.78,29.57,10,10,10,10,5,14,0.00,0,,20
2013-6-24,77,67,56,52,43,33,80,54,27,29.83,29.67,29.56,10,10,9,32,12,39,0.06,3,Rain,233
2013-6-25,80,65,50,59,51,44,93,62,31,30.00,29.89,29.82,10,10,6,24,6,30,0.02,4,Rain,218
2013-6-26,85,67,49,52,49,45,93,60,26,30.05,30.00,29.93,10,10,10,17,5,22,0.00,2,,218
2013-6-27,95,73,50,52,47,31,83,47,11,30.15,30.08,30.01,10,10,10,10,4,12,0.00,0,,289
2013-6-28,99,77,54,57,44,35,77,44,11,30.14,30.06,29.96,10,10,10,13,5,16,0.00,0,,11
2013-6-29,101,78,55,53,46,33,77,44,10,30.13,29.96,29.83,10,10,7,36,8,48,T,1,Thunderstorm,47
2013-6-30,98,77,56,58,48,34,80,45,10,30.01,29.94,29.87,10,10,10,16,6,22,0.00,0,,33